KPHXKFLG [ASH2839]

Details From KPHX - Phoenix Sky Harbor Intl
To KFLG - Flagstaff Pulliam
Flight Number ASH2839
Tags Real Commercial Decoded
Created
Modified
Stats Distance 135 nm / 250 km
Max Altitude 0 ft / 0 m
Waypoints 4
Social Downloads 6
Likes 0
Share VATSIM

Download

Looking for another format? Having issues loading an existing format? Contact us
Advertisement - Login to hide

Notes

Decoded

Route

KPHX FLG TAWNE KFLG

ID Type Via Altitude Latitude Longitude Leg Dist Tot Dist Heading (true) Name
O KPHX APT - 0 ft / 0 m 33.42886˚ -112.02710˚ - 0 nm - -
FLG VOR - 0 ft / 0 m 35.14719˚ -111.67417˚ 104 nm 104 nm 10° / 10° FLAGSTAFF VOR-DME
TAWNE FIX - 0 ft / 0 m 35.11847˚ -111.37136˚ 14 nm 119 nm 97° / 97° -
O KFLG APT - 0 ft / 0 m 35.13122˚ -111.67892˚ 15 nm 134 nm 273° / 273° -

Altitude Profile

Advertisement - Login to hide

KPHX

Details ICAO KPHX (PHX)
Name Phoenix Sky Harbor Intl
Region United States
Timezone America/Phoenix (UTC-7.0)
Stats Elevation 1,135 ft / 346 m (AMSL)
Location 33.433580° -112.011837°
Runways 3
Magnetic Variation 10.275° E

METAR

KPHX 241851Z VRB04KT 10SM CLR 33/01 A2995 RMK AO2 SLP123 T03330006

Decode

TAF

TAF KPHX 241720Z 2418/2524 11005KT P6SM SKC FM242000 26008KT P6SM SKC TEMPO 2420/2423 18007KT FM251000 10005KT P6SM SKC FM252100 27010KT P6SM SKC

Decode

Departure Runways

ID Width Length Bearing (true) Bearing (mag) Surface Threshold Offset Overrun Length
07L 151 ft / 46 m 10,279 ft / 3,133 m 90.03° 79.75° Concrete 0 ft / 0 m 400 ft / 122 m
07R 151 ft / 46 m 7,785 ft / 2,373 m 90.03° 79.75° Concrete 0 ft / 0 m 499 ft / 152 m
08 151 ft / 46 m 11,467 ft / 3,495 m 90.06° 79.78° Concrete 899 ft / 274 m 377 ft / 115 m
25L 151 ft / 46 m 7,785 ft / 2,373 m 270.05° 259.77° Concrete 0 ft / 0 m 702 ft / 214 m
25R 151 ft / 46 m 10,279 ft / 3,133 m 270.05° 259.77° Concrete 0 ft / 0 m 991 ft / 302 m
26 151 ft / 46 m 11,467 ft / 3,495 m 270.08° 259.80° Concrete 0 ft / 0 m 0 ft / 0 m

KFLG

Details ICAO KFLG (FLG)
Name Flagstaff Pulliam
Region United States
Timezone America/Phoenix (UTC-7.0)
Stats Elevation 7,011 ft / 2,137 m (AMSL)
Location 35.138455° -111.671215°
Runways 1
Magnetic Variation 10.422° E

METAR

KFLG 241857Z 19010KT 10SM CLR 21/M08 A3028 RMK AO2 SLP174 T02111078

Decode

TAF

TAF KFLG 241720Z 2418/2518 22010G15KT P6SM SKC FM241900 21010G20KT P6SM SKC FM250100 22010KT P6SM SKC FM250400 VRB05KT P6SM SKC

Decode

Destination Runways

ID Width Length Bearing (true) Bearing (mag) Surface Threshold Offset Overrun Length
03 150 ft / 46 m 7,003 ft / 2,135 m 41.03° 30.61° Asphalt 0 ft / 0 m 0 ft / 0 m
21 150 ft / 46 m 7,003 ft / 2,135 m 221.04° 210.62° Asphalt 0 ft / 0 m 0 ft / 0 m

Approach Navaids

Runway Type Ident Frequency Range Bearing (true) Bearing (mag) Slope Elevation
21 Localiser IFLG 110.50 MHz 18 nm / 33 km 226.05° 215.63° - 7,011 ft / 2,137 m (AMSL)
21 Glidescope IFLG 110.50 MHz 10 nm / 19 km 221.04° 210.62° 3.00° 6,998 ft / 2,133 m (AMSL)

Popular Alternatives